Regional Weather Roundup
Issued by NWS Sioux Falls, SD

Home | Current Version | Previous Version | Text Only | Print | Product List | Glossary Off
Versions: 1 2 3 4 5 6 7 8 9 10 11 12 13 14 15 16 17 18 19 20 21 22 23 24 25 26 27 28 29 30 31 32 33 34 35 36 37 38 39 40 41 42 43 44 45 46 47 48 49 50

877
ASUS43 KFSD 230610
RWRFSD

WEATHER ROUNDUP FOR SE SOUTH DAKOTA/SW MINNESOTA/NW IOWA
NATIONAL WEATHER SERVICE SIOUX FALLS SD
100 AM CDT MON APR 23 2018

NOTE: "FAIR" INDICATES FEW OR NO CLOUDS BELOW 12,000 FEET WITH NO
SIGNIFICANT WEATHER AND OR OBSTRUCTIONS TO VISIBILITY.


SDZ038>040-050-052>070-230700-
SOUTHEAST SOUTH DAKOTA

CITY           SKY/WX    TMP DP  RH WIND       PRES   REMARKS
BROOKINGS      CLEAR     39  35  86 SE7       30.21S
CHAMBERLAIN    CLEAR     44  40  88 CALM      30.17S
6HR MIN TEMP:  44; 6HR MAX TEMP:  63;

HURON          NOT AVBL
MADISON        FAIR      39  39 100 SE3       30.21S
MITCHELL       CLEAR     45  39  79 SE6       30.19S
6HR MIN TEMP:  44; 6HR MAX TEMP:  62;

SIOUX FALLS    CLEAR     42  36  79 E7        30.21S
6HR MIN TEMP:  41; 6HR MAX TEMP:  59;

WINNER         FAIR      45  35  68 SW5       30.16S
YANKTON        CLEAR     46  41  82 E5        30.20S
$$

MNZ071-072-080-081-089-090-097-098-230700-
SOUTHWEST MINNESOTA

CITY           SKY/WX    TMP DP  RH WIND       PRES   REMARKS
FAIRMONT       CLEAR     39  36  89 N6        30.24R
JACKSON        PTCLDY    37  34  87 CALM      30.23F
LUVERNE        CLEAR     39  34  81 CALM      30.23S
MARSHALL       CLEAR     38  34  85 S3        30.24S
6HR MIN TEMP:  37; 6HR MAX TEMP:  53;

MONTEVIDEO     CLEAR     39  37  93 S6        30.24S
PIPESTONE      CLEAR    N/A N/A N/A SE6       30.22S
REDWOOD FALLS  CLEAR     42  39  89 CALM      30.23S
TRACY          CLEAR     38  35  87 CALM      30.23S
WINDOM         CLEAR     37  23  56 CALM      30.24R
WORTHINGTON    CLEAR     37  35  92 N5        30.24S
$$

IAZ001>003-012>014-020>022-031-032-NEZ013-014-SDZ071-230700-
NORTHWEST IOWA

CITY           SKY/WX    TMP DP  RH WIND       PRES   REMARKS
CHEROKEE       CLEAR     44  40  88 N3        30.21S
DENISON        CLEAR     41  30  65 NE3       30.21R
ESTHERVILLE    CLEAR     34  31  88 N6        30.22S WCI  29
LE MARS        PTCLDY    41  37  87 N5        30.21S
ORANGE CITY    CLEAR     45  39  81 E7        30.21S
SHELDON        CLEAR     39  37  93 E9        30.20S
SIOUX CITY     MOCLDY    44  38  79 CALM      30.20R
6HR MIN TEMP:  44; 6HR MAX TEMP:  65;

SPENCER        CLEAR     41  36  82 NE5       30.22S
6HR MIN TEMP:  40; 6HR MAX TEMP:  54;

STORM LAKE     CLEAR     45  39  81 E9        30.20S
$$

ABBREVIATIONS USED IN REMARKS
   TC - TEMPERATURE IN CELSIUS
  WCI - WIND CHILL INDEX
   HX - HEAT INDEX
  VSB - VISIBILITY





USA.gov is the U.S. government's official web portal to all federal, state and local government web resources and services.